[TLELIST] Archives

 

[list_settings.list_name] Current TLEs

February 10th 2010 PST

HST 1 20580U 90037B 10039.31536863 .00000423 00000-0 19571-4 0 5141 2 20580 028.4702 001.1182 0003300 268.1978 091.8283 15.00889866885362 ISS (ZARYA) 1 25544U 98067A 10040.38873190 .00019275 00000-0 12567-3 0 5505 2 25544 051.6454 166.8195 0010777 303.5541 109.5214 15.75852402643347 CXO 1 25867U 99040B 10039.58333333 -.00000543 00000-0 10000-3 0 4266 2 25867 066.5047 059.6385 7961038 275.2193 011.8125 00.37807764 5901 ____________________________________________________________________ These 2-Line ...Continue Reading

[list_settings.list_name] Current TLEs

February 9th 2010 PST

HST 1 20580U 90037B 10036.19003978 .00000395 00000-0 17439-4 0 5138 2 20580 028.4700 021.5203 0003575 233.5784 126.4511 15.00888083884891 ISS (ZARYA) 1 25544U 98067A 10039.38158205 .00018195 00000-0 11910-3 0 5428 2 25544 051.6451 172.0046 0010773 299.2874 156.3631 15.75808068643188 CXO 1 25867U 99040B 10039.58333333 -.00000543 00000-0 10000-3 0 4266 2 25867 066.5047 059.6385 7961038 275.2193 011.8125 00.37807764 5901 ____________________________________________________________________ These 2-Line ...Continue Reading

[list_settings.list_name] Current TLEs

February 8th 2010 PST

HST 1 20580U 90037B 10036.19003978 .00000395 00000-0 17439-4 0 5138 2 20580 028.4700 021.5203 0003575 233.5784 126.4511 15.00888083884891 ISS (ZARYA) 1 25544U 98067A 10038.43444266 .00018047 00000-0 11836-3 0 5353 2 25544 051.6455 176.8816 0010732 295.3534 183.6938 15.75771941643030 CXO 1 25867U 99040B 10036.83333333 -.00000527 00000-0 10000-3 0 4252 2 25867 066.4941 059.7616 7954223 275.2054 357.4626 00.37808419 5896 ____________________________________________________________________ These 2-Line ...Continue Reading

[list_settings.list_name] Current TLEs

February 7th 2010 PST

HST 1 20580U 90037B 10036.19003978 .00000395 00000-0 17439-4 0 5138 2 20580 028.4700 021.5203 0003575 233.5784 126.4511 15.00888083884891 ISS (ZARYA) 1 25544U 98067A 10037.40750003 .00017709 00000-0 11642-3 0 5290 2 25544 051.6451 182.1667 0010818 290.9784 118.5874 15.75732450642872 CXO 1 25867U 99040B 10036.83333333 -.00000527 00000-0 10000-3 0 4252 2 25867 066.4941 059.7616 7954223 275.2054 357.4626 00.37808419 5896 ____________________________________________________________________ These 2-Line ...Continue Reading

[list_settings.list_name] Current TLEs

February 6th 2010 PST

HST 1 20580U 90037B 10036.19003978 .00000395 00000-0 17439-4 0 5138 2 20580 028.4700 021.5203 0003575 233.5784 126.4511 15.00888083884891 ISS (ZARYA) 1 25544U 98067A 10036.46526808 .00016977 00000-0 11198-3 0 5202 2 25544 051.6443 187.0175 0010760 285.9782 175.0936 15.75694971642725 CXO 1 25867U 99040B 10036.83333333 -.00000527 00000-0 10000-3 0 4252 2 25867 066.4941 059.7616 7954223 275.2054 357.4626 00.37808419 5896 ____________________________________________________________________ These 2-Line ...Continue Reading

[list_settings.list_name] Current TLEs

February 5th 2010 PST

HST 1 20580U 90037B 10034.26164458 .00000371 00000-0 15592-4 0 5126 2 20580 028.4698 034.1064 0003637 214.2224 145.8149 15.00886988884609 ISS (ZARYA) 1 25544U 98067A 10035.38351289 .00015217 00000-0 10103-3 0 5145 2 25544 051.6448 192.5852 0010686 280.9766 159.7494 15.75649593642556 CXO 1 25867U 99040B 10034.20833333 -.00000358 00000-0 10000-3 0 4247 2 25867 066.4793 059.8394 7946493 275.2285 000.0856 00.37805226 5889 ____________________________________________________________________ These 2-Line ...Continue Reading

[list_settings.list_name] Current TLEs

February 4th 2010 PST

HST 1 20580U 90037B 10034.26164458 .00000371 00000-0 15592-4 0 5126 2 20580 028.4698 034.1064 0003637 214.2224 145.8149 15.00886988884609 ISS (ZARYA) 1 25544U 98067A 10034.43438116 .00013556 00000-0 90619-4 0 5050 2 25544 051.6453 197.4702 0010755 277.2549 176.0713 15.75612596642408 CXO 1 25867U 99040B 10034.20833333 -.00000358 00000-0 10000-3 0 4247 2 25867 066.4793 059.8394 7946493 275.2285 000.0856 00.37805226 5889 ____________________________________________________________________ These 2-Line ...Continue Reading

[list_settings.list_name] Current TLEs

February 3rd 2010 PST

HST 1 20580U 90037B 10031.46879352 .00000364 00000-0 15047-4 0 5117 2 20580 028.4696 052.3340 0003648 185.6016 174.4458 15.00885832884189 ISS (ZARYA) 1 25544U 98067A 10033.35058106 .00011627 00000-0 78472-4 0 4988 2 25544 051.6438 203.0491 0010852 272.6302 149.0461 15.75573612642230 CXO 1 25867U 99040B 10034.20833333 -.00000358 00000-0 10000-3 0 4247 2 25867 066.4793 059.8394 7946493 275.2285 000.0856 00.37805226 5889 ____________________________________________________________________ These 2-Line ...Continue Reading

[list_settings.list_name] Current TLEs

February 2nd 2010 PST

HST 1 20580U 90037B 10031.46879352 .00000364 00000-0 15047-4 0 5117 2 20580 028.4696 052.3340 0003648 185.6016 174.4458 15.00885832884189 ISS (ZARYA) 1 25544U 98067A 10032.25962963 .00011331 00000-0 76674-4 0 4918 2 25544 051.6439 208.6638 0010870 268.1734 081.4265 15.75545439642051 CXO 1 25867U 99040B 10031.58333333 -.00000255 00000-0 10000-3 0 4235 2 25867 066.4599 059.9541 7942638 275.2440 002.6415 00.37808737 5876 ____________________________________________________________________ These 2-Line ...Continue Reading

[list_settings.list_name] Current TLEs

February 1st 2010 PST

HST 1 20580U 90037B 10028.21046764 .00000421 00000-0 19433-4 0 5105 2 20580 028.4700 073.5965 0003596 151.8346 208.2442 15.00884921883698 ISS (ZARYA) 1 25544U 98067A 10031.32060626 .00011803 00000-0 79755-4 0 4850 2 25544 051.6442 213.4969 0010920 264.2788 155.6624 15.75524863641913 CXO 1 25867U 99040B 10031.58333333 -.00000255 00000-0 10000-3 0 4235 2 25867 066.4599 059.9541 7942638 275.2440 002.6415 00.37808737 5876 ____________________________________________________________________ These 2-Line ...Continue Reading
  • This mailing list is a public mailing list - anyone may join or leave, at any time.
  • This mailing list is announce-only.

International Space Station (ISS) / Hubble Space Telescope (HST) / Chandra X-Ray Observatory Orbital Data via EMAIL

Privacy Policy:

Private list